(339407) = 2005 CX49

Discovered at Socorro on 2005-02-02 by LINEAR.

Orbit

Orbit type: Main Belt

Note: WebGL enabled browser required.

epoch2024-03-31.0
epoch JD2460400.5
perihelion date2025-03-05.54507
perihelion JD2460740.04507
argument of perihelion (°)353.24974
ascending node (°)312.95317
inclination (°)10.48053
eccentricity0.0206507
perihelion distance (AU)2.6740315
Tisserand w.r.t. Jupiter3.3
ΔV w.r.t. Earth (km/sec)10.7
semimajor axis (AU)2.7304165
mean anomaly (°)285.82494
mean daily motion (°/day)0.21845430
aphelion distance (AU)2.787
period (years)4.51
P-vector [x]0.59208203
P-vector [y]-0.73061318
P-vector [z]-0.34006360
Q-vector [x]0.79480424
Q-vector [y]0.45969558
Q-vector [z]0.39618960
absolute magnitude15.74
phase slope0.15
uncertainty0
referenceMPEC 2024-C115
observations used455
oppositions15
arc length (days)8022
first opposition used2001
last opposition used2023
residual rms (arc-secs)0.75
perturbers coarse indicatorM-v
perturbers precise indicator003Ek
first observation date used2001-04-01.0
last observation date used2023-03-19.0
computer nameMPCLINUX
JD of orbit computation2456760.749560
perihelion JD uncertainty (days)9.2569E-04
argument of perihelion uncertainty (°)2.0115E-04
ascending node uncertainty (°)3.8181E-05
inclination uncertainty (°)9.4941E-06
eccentricity uncertainty 8.7179E-08
perihelion distance uncertainty (AU)2.3034E-07
Minimum Orbit Intersection Distances (in AU)
for orbit epoch: 2460200.5, reference: E2024-CB5
Mercury2.21985
Venus1.94538
Earth1.65829
Mars1.13117
Jupiter2.33173
Saturn6.30335
Uranus15.6871
Neptune27.1795

Observations

456 total observations over interval: 2001 04 01.27155 – 2023 03 19.268980
These data are available for download (format description).

Date (UT) J2000 RA J2000 Dec Magn Location Ref
2001 04 01.27155 12 34 55.95 -19 22 03.6 19.1 R 699 – Lowell Observatory-LONEOS MPS 229000
2001 04 01.28557 12 34 55.22 -19 22 03.6   699 – Lowell Observatory-LONEOS MPS 229000
2001 04 01.29964 12 34 54.45 -19 22 00.6   699 – Lowell Observatory-LONEOS MPS 229000
2001 04 01.31366 12 34 53.59 -19 21 56.7   699 – Lowell Observatory-LONEOS MPS 229000
2005 01 18.32194 10 07 07.60 +09 47 50.7 19.4 R 703 – Catalina Sky Survey MPS 177047
2005 01 18.33132 10 07 07.09 +09 47 47.8 20.2 R 703 – Catalina Sky Survey MPS 177047
2005 01 18.34073 10 07 06.71 +09 47 49.0 18.8 R 703 – Catalina Sky Survey MPS 177047
2005 01 18.35022 10 07 06.35 +09 47 47.4 22.0 R 703 – Catalina Sky Survey MPS 177047
2005 02 02.35765 09 55 09.56 +09 52 25.3 19.4   704 – Lincoln Laboratory ETS, New Mexico MPS 126463
2005 02 02.38448 09 55 08.11 +09 52 27.3 19.5   704 – Lincoln Laboratory ETS, New Mexico MPS 126463
2005 02 02.39737 09 55 07.35 +09 52 27.9 19.8   704 – Lincoln Laboratory ETS, New Mexico MPS 126463
2005 02 09.30100 09 48 34.96 +09 59 59.0 19.7   704 – Lincoln Laboratory ETS, New Mexico MPS 126463
2005 02 09.31484 09 48 34.08 +09 59 59.3 19.4   704 – Lincoln Laboratory ETS, New Mexico MPS 126463
2005 02 09.32786 09 48 33.20 +09 59 59.7 20.1   704 – Lincoln Laboratory ETS, New Mexico MPS 126463
2005 02 09.34157 09 48 32.42 +10 00 00.5 19.9   704 – Lincoln Laboratory ETS, New Mexico MPS 126463
2005 03 03.21941 09 28 08.91 +10 29 14.7 19.0 R 703 – Catalina Sky Survey MPS 177047
2005 03 03.22792 09 28 08.39 +10 29 16.1 19.4 R 703 – Catalina Sky Survey MPS 177047
2005 03 03.23645 09 28 08.06 +10 29 17.8 19.1 R 703 – Catalina Sky Survey MPS 177047
2005 03 03.24499 09 28 07.56 +10 29 17.4 18.7 R 703 – Catalina Sky Survey MPS 177047
2005 03 17.21710 09 18 47.91 +10 40 11.4 19.2 R G96 – Mt. Lemmon Survey MPS 177047
2005 03 17.22333 09 18 47.71 +10 40 11.6 19.5 R G96 – Mt. Lemmon Survey MPS 177047
2005 03 17.22954 09 18 47.50 +10 40 11.8 19.5 R G96 – Mt. Lemmon Survey MPS 177047
2005 03 17.23574 09 18 47.30 +10 40 11.6 19.6 R G96 – Mt. Lemmon Survey MPS 177047
2007 09 11.27317 23 24 57.45 +07 44 44.8 19.4 V 703 – Catalina Sky Survey MPS 229000
2007 09 11.28084 23 24 57.09 +07 44 43.5 19.1 V 703 – Catalina Sky Survey MPS 229000
2007 09 11.28853 23 24 56.62 +07 44 42.2 19.4 V 703 – Catalina Sky Survey MPS 229000
2007 09 11.29624 23 24 56.16 +07 44 42.1 19.5 V 703 – Catalina Sky Survey MPS 229000
2007 11 16.09619 22 57 07.59 +04 54 30.0 19.4 V G96 – Mt. Lemmon Survey MPS 229000
2007 11 16.10064 22 57 07.74 +04 54 29.9 19.9 V G96 – Mt. Lemmon Survey MPS 229000
2007 11 16.10506 22 57 07.81 +04 54 29.7 19.6 V G96 – Mt. Lemmon Survey MPS 229000
2007 11 16.10948 22 57 07.88 +04 54 29.7 20.6 V G96 – Mt. Lemmon Survey MPS 229000
2008 12 30.33666 06 26 50.46 +32 56 48.4 19.0 V 703 – Catalina Sky Survey MPS 270146
2008 12 30.34138 06 26 50.10 +32 56 47.8 20.1 V 703 – Catalina Sky Survey MPS 270146
2008 12 30.34615 06 26 49.70 +32 56 46.6 19.8 V 703 – Catalina Sky Survey MPS 270146
2008 12 30.35088 06 26 49.38 +32 56 45.3 20.7 V 703 – Catalina Sky Survey MPS 270146
2010 02 25.503587 12 52 28.556 -18 18 33.09 20.50 r F51 – Pan-STARRS 1, Haleakala MPS 319312
2010 02 25.511968 12 52 28.286 -18 18 34.97 19.85 r F51 – Pan-STARRS 1, Haleakala MPS 319312
2010 03 21.437984 12 35 47.674 -18 38 17.87 20.30 g F51 – Pan-STARRS 1, Haleakala MPS 337327
2010 03 21.446496 12 35 47.199 -18 38 17.07 20.20 g F51 – Pan-STARRS 1, Haleakala MPS 337327
2010 04 06.27390 12 21 20.16 -17 52 11.1 19.1 V 703 – Catalina Sky Survey MPS 320636
2010 04 06.27963 12 21 19.76 -17 52 11.3 19.4 V 703 – Catalina Sky Survey MPS 320636
2010 04 06.28543 12 21 19.47 -17 52 09.8 19.2 V 703 – Catalina Sky Survey MPS 320636
2010 04 06.29122 12 21 19.18 -17 52 08.5 19.4 V 703 – Catalina Sky Survey MPS 320636
2010 06 26.213306 12 15 32.79 -14 08 55.6   C51 – WISE MPS 334872
2010 06 26.345609 12 15 39.21 -14 09 08.4   C51 – WISE MPS 334872
2010 06 26.477912 12 15 45.43 -14 09 22.6   C51 – WISE MPS 334872
2010 06 26.610216 12 15 51.74 -14 09 36.6   C51 – WISE MPS 334872
2010 06 26.676432 12 15 54.994 -14 09 42.66   C51 – WISE MPS 904108
2010 06 26.742520 12 15 58.07 -14 09 50.9   C51 – WISE MPS 334872
2010 06 27.007127 12 16 10.85 -14 10 20.7   C51 – WISE MPS 334872
2010 06 27.073215 12 16 14.06 -14 10 27.8   C51 – WISE MPS 334872
2010 06 27.205520 12 16 20.46 -14 10 45.3   C51 – WISE MPS 334872
2010 06 27.337823 12 16 26.95 -14 10 56.8   C51 – WISE MPS 334872
2010 06 27.470127 12 16 33.25 -14 11 13.0   C51 – WISE MPS 334872
2011 07 28.38677 20 03 04.728 -24 13 53.66 19.5 r F51 – Pan-STARRS 1, Haleakala MPS 387776
2011 07 28.39622 20 03 04.138 -24 13 52.97 19.5 r F51 – Pan-STARRS 1, Haleakala MPS 387776
2011 07 28.40712 20 03 03.454 -24 13 52.04 20.0 g F51 – Pan-STARRS 1, Haleakala MPS 387776
2011 07 28.41704 20 03 02.838 -24 13 51.31 20.1 g F51 – Pan-STARRS 1, Haleakala MPS 387776
2012 09 17.06603 03 03 15.18 +31 30 44.1 19.4 R 106 – Crni Vrh MPS 431881
2012 09 17.07925 03 03 15.06 +31 30 47.4 19.6 R 106 – Crni Vrh MPS 431881
2012 09 17.09262 03 03 15.06 +31 30 52.3 19.3 R 106 – Crni Vrh MPS 431881
2012 09 17.10596 03 03 15.01 +31 30 55.6 19.1 R 106 – Crni Vrh MPS 431881
2012 10 10.30123 02 54 29.55 +32 44 53.5 21.0 V 703 – Catalina Sky Survey MPS 435049
2012 10 10.30865 02 54 29.16 +32 44 54.2 19.6 V 703 – Catalina Sky Survey MPS 435049
2012 10 10.31610 02 54 28.90 +32 44 55.9 19.7 V 703 – Catalina Sky Survey MPS 435049
2012 10 10.32353 02 54 28.47 +32 44 56.9 19.9 V 703 – Catalina Sky Survey MPS 435049
2012 10 10.556638 02 54 18.622 +32 45 12.63 19.7 r F51 – Pan-STARRS 1, Haleakala MPS 435049
2012 10 10.568584 02 54 18.090 +32 45 13.33 19.6 r F51 – Pan-STARRS 1, Haleakala MPS 435049
2012 10 10.581180 02 54 17.541 +32 45 13.96 19.4 i F51 – Pan-STARRS 1, Haleakala MPS 435049
2012 10 10.593735 02 54 16.980 +32 45 14.85 19.5 i F51 – Pan-STARRS 1, Haleakala MPS 435049
2012 11 04.22410 02 31 51.16 +32 06 56.0 19.6 V 703 – Catalina Sky Survey MPS 441606
2012 11 04.23315 02 31 50.55 +32 06 53.5 19.4 V 703 – Catalina Sky Survey MPS 441606
2012 11 04.24224 02 31 49.87 +32 06 50.8 19.8 V 703 – Catalina Sky Survey MPS 441606
2012 11 04.25135 02 31 49.33 +32 06 47.7 19.2 V 703 – Catalina Sky Survey MPS 441606
2012 11 11.41711 02 24 43.59 +31 32 14.6 19.2 V 703 – Catalina Sky Survey MPS 443320
2012 11 11.42461 02 24 43.09 +31 32 12.0 19.5 V 703 – Catalina Sky Survey MPS 443320
2012 11 11.43207 02 24 42.55 +31 32 09.6 20.2 V 703 – Catalina Sky Survey MPS 443320
2012 11 11.43950 02 24 42.22 +31 32 07.5 19.2 V 703 – Catalina Sky Survey MPS 443320
2012 11 20.19326 02 16 51.60 +30 39 56.1 20.3 V 703 – Catalina Sky Survey MPS 444817
2012 11 20.19830 02 16 51.38 +30 39 54.2 20.2 V 703 – Catalina Sky Survey MPS 444817
2012 11 20.20338 02 16 51.06 +30 39 54.2 20.6 V 703 – Catalina Sky Survey MPS 444817
2012 11 20.20941 02 16 50.77 +30 39 50.6 19.7 V 703 – Catalina Sky Survey MPS 444817
2012 12 06.13625 02 06 51.08 +28 53 42.2 20.0 V 703 – Catalina Sky Survey MPS 445908
2012 12 06.14237 02 06 50.83 +28 53 39.9 19.6 V 703 – Catalina Sky Survey MPS 445908
2012 12 06.14845 02 06 50.65 +28 53 37.8 20.1 V 703 – Catalina Sky Survey MPS 445908
2012 12 06.15458 02 06 50.50 +28 53 35.0 19.2 V 703 – Catalina Sky Survey MPS 445908
2013 12 30.39989 10 07 53.78 +11 15 34.2 19.9 V G96 – Mt. Lemmon Survey MPS 495182
2013 12 30.40734 10 07 53.70 +11 15 33.7 20.1 V G96 – Mt. Lemmon Survey MPS 495182
2013 12 30.41479 10 07 53.61 +11 15 32.4 20.1 V G96 – Mt. Lemmon Survey MPS 495182
2013 12 30.42225 10 07 53.51 +11 15 31.3 20.1 V G96 – Mt. Lemmon Survey MPS 495182
2014 01 07.39892 10 05 20.19 +11 01 35.7 19.9 V G96 – Mt. Lemmon Survey MPS 496505
2014 01 07.40704 10 05 19.98 +11 01 35.0 20.0 V G96 – Mt. Lemmon Survey MPS 496505
2014 01 07.41513 10 05 19.76 +11 01 34.9 19.8 V G96 – Mt. Lemmon Survey MPS 496505
2014 01 07.42322 10 05 19.55 +11 01 33.9 19.8 V G96 – Mt. Lemmon Survey MPS 496505
2014 01 23.37954 09 55 29.43 +10 53 49.3 19.8 V G96 – Mt. Lemmon Survey MPS 498371
2014 01 23.38649 09 55 29.09 +10 53 49.2 19.7 V G96 – Mt. Lemmon Survey MPS 498371
2014 01 23.39344 09 55 28.73 +10 53 49.1 19.7 V G96 – Mt. Lemmon Survey MPS 498371
